This demonstration page uses our WeatherBlox Daily Observations layout. Learn more.

Left ArrowRight Arrow

40.92945, -100.16068

Hourly Observations for August 17, 2022

Temp ( °F °C ) Dew Point ( °F °C ) Humidity (%) Winds ( mph kmh ) Pressure ( in mb ) Visibility ( mi km ) Precip ( " mm )
1:55 am 01:55 Cloudy with Mist and Fog 64 17.5 63 17 97 97 E 5 7 30.13 1020 5 8 0.00 0.00
2:35 am 02:35 Cloudy with Mist and Fog 64 17.5 63 17 97 97 Calm 30.12 1020 5 8 0.00 0.00
2:55 am 02:55 Cloudy with Mist and Fog 64 17.5 63 17 97 97 Calm 30.13 1020 5 8 0.00 0.00
3:15 am 03:15 Cloudy with Mist and Fog 64 17.5 63 17 97 97 Calm 30.13 1020 5 8 0.00 0.00
3:35 am 03:35 Cloudy with Mist and Fog 64 17.6 63 17 96 96 Calm 30.13 1020 5 8 0.00 0.00
3:55 am 03:55 Cloudy with Mist and Fog 64 17.6 63 17.1 97 97 Calm 30.13 1020 4 6 0.00 0.00
4:15 am 04:15 Cloudy with Mist and Fog 64 17.5 63 17 97 97 Calm 30.13 1020 3 5 0.00 0.00
4:35 am 04:35 Cloudy with Mist and Fog 64 17.5 63 17.1 98 98 Calm 30.13 1020 3 5 0.00 0.00
4:55 am 04:55 Cloudy with Mist and Fog 64 17.5 63 17.1 98 98 N 3 6 30.13 1020 3 4 0.00 0.00
5:15 am 05:15 Cloudy with Mist and Fog 64 17.5 63 17.1 98 98 Calm 30.13 1020 3 4 0.00 0.00
5:35 am 05:35 Cloudy with Mist and Fog 64 17.5 63 17.1 98 98 Calm 30.13 1020 3 5 0.00 0.00
5:55 am 05:55 Cloudy with Mist and Fog 63 17.3 63 17 98 98 Calm 30.14 1021 3 5 0.00 0.00
6:15 am 06:15 Cloudy with Mist and Fog 64 17.5 63 17.1 98 98 Calm 30.14 1021 3 5 0.00 0.00
6:35 am 06:35 Cloudy with Mist and Fog 63 17.3 63 17 98 98 Calm 30.14 1021 3 5 0.00 0.00
6:55 am 06:55 Cloudy with Mist and Fog 63 17.4 63 17 98 98 Calm 30.14 1021 3 4 0.00 0.00
7:15 am 07:15 Cloudy with Mist and Fog 64 17.5 63 17 97 97 Calm 30.15 1021 2 3 0.00 0.00
7:35 am 07:35 Mostly Cloudy with Mist and Fog 64 17.5 63 17 97 97 Calm 30.15 1021 2 2 0.00 0.00
7:55 am 07:55 Sunny with Mist and Fog 64 17.5 63 17 97 97 NE 3 6 30.16 1021 3 4 0.00 0.00
8:15 am 08:15 Partly Cloudy with Mist and Fog 64 17.6 63 17 96 96 ENE 5 7 30.17 1022 3 5 0.00 0.00
8:35 am 08:35 Partly Cloudy with Mist and Fog 65 18.1 63 17.1 94 94 ENE 5 7 30.17 1022 5 8 0.00 0.00
8:55 am 08:55 Sunny 66 19 63 17 88 88 E 6 9 30.16 1021 7 11 0.00 0.00
9:15 am 09:15 Sunny 67 19.7 62 16.9 84 84 ESE 3 6 30.15 1021 10 16 0.00 0.00
9:35 am 09:35 Partly Cloudy 68 20.1 62 16.8 81 81 E 5 7 30.15 1021 10 16 0.00 0.00
9:55 am 09:55 Mostly Cloudy 69 20.5 62 16.9 80 80 ESE 7 11 30.15 1021 10 16 0.00 0.00
10:15 am 10:15 Mostly Cloudy 68 20.1 62 16.9 82 82 SE 5 7 30.15 1021 10 16 0.00 0.00
10:35 am 10:35 Mostly Cloudy 69 20.8 61 16.2 75 75 SE 6 9 30.14 1021 10 16 0.00 0.00
10:55 am 10:55 Cloudy 71 21.8 62 16.6 72 72 SSE 6 9 30.14 1020 10 16 0.00 0.00
11:15 am 11:15 Cloudy 71 21.7 62 16.4 72 72 SE 8 13 30.13 1020 10 16 0.00 0.00
11:35 am 11:35 Mostly Cloudy 72 22.1 60 15.6 67 67 SE 8 13 30.12 1020 10 16 0.00 0.00
11:55 am 11:55 Mostly Cloudy 73 22.5 60 15.3 64 64 SE 6 9 30.12 1020 10 16 0.00 0.00
12:15 pm 12:15 Mostly Cloudy 72 22.4 60 15.4 65 65 SE 5 7 30.12 1020 10 16 0.00 0.00
12:35 pm 12:35 Mostly Cloudy 73 22.5 59 15 63 63 SE 3 6 30.11 1020 10 16 0.00 0.00
12:55 pm 12:55 Partly Cloudy 74 23.6 60 15.7 61 61 S 5 7 30.10 1019 10 16 0.00 0.00
1:15 pm 13:15 Partly Cloudy 73 22.8 60 15.3 63 63 SSE 5 7 30.11 1020 10 16 0.00 0.00
1:35 pm 13:35 Mostly Cloudy 75 24 60 15.5 59 59 ESE 5 7 30.09 1019 10 16 0.00 0.00
1:55 pm 13:55 Mostly Cloudy 75 23.9 59 14.9 57 57 SSE 8 13 30.09 1019 10 16 0.00 0.00
2:15 pm 14:15 Partly Cloudy 77 25.2 59 14.9 53 53 SE 6 9 30.07 1018 10 16 0.00 0.00
2:35 pm 14:35 Partly Cloudy 76 24.3 58 14.3 54 54 ENE 6 9 30.08 1018 10 16 0.00 0.00
2:55 pm 14:55 Partly Cloudy 78 25.4 57 13.8 49 49 ESE 3 6 30.07 1018 10 16 0.00 0.00
3:15 pm 15:15 Partly Cloudy 79 26 57 13.8 47 47 SSE 5 7 30.06 1018 10 16 0.00 0.00
3:35 pm 15:35 Partly Cloudy 78 25.8 57 14.1 48 48 SSE 3 6 30.05 1018 10 16 0.00 0.00
3:55 pm 15:55 Partly Cloudy 78 25.7 57 14 48 48 ESE 9 15 30.05 1018 10 16 0.00 0.00
4:15 pm 16:15 Sunny 79 26.2 58 14.2 48 48 ESE 8 13 30.04 1017 10 16 0.00 0.00
4:35 pm 16:35 Partly Cloudy 78 25.7 57 13.8 48 48 ESE 6 9 30.04 1017 10 16 0.00 0.00
4:55 pm 16:55 Partly Cloudy 77 25.1 57 13.9 50 50 ESE 3 6 30.05 1018 10 16 0.00 0.00
5:15 pm 17:15 Sunny 78 25.6 57 14.1 49 49 S 7 11 30.04 1017 10 16 0.00 0.00
5:35 pm 17:35 Partly Cloudy 79 26.2 58 14.7 49 49 SSE 10 17 30.02 1017 10 16 0.00 0.00
5:55 pm 17:55 Partly Cloudy 80 26.5 59 15 49 49 S 7 11 30.02 1016 10 16 0.00 0.00
6:15 pm 18:15 Sunny 79 26.1 59 15.2 51 51 S 8 13 30.02 1017 10 16 0.00 0.00
6:35 pm 18:35 Sunny 78 25.7 59 15 52 52 SSE 7 11 30.01 1016 10 16 0.00 0.00
6:55 pm 18:55 Sunny 78 25.3 59 14.9 53 53 SSE 9 15 30.01 1016 10 16 0.00 0.00
7:15 pm 19:15 Sunny 77 25.1 59 15.1 54 54 SSE 8 13 30.01 1016 10 16 0.00 0.00
7:35 pm 19:35 Sunny 76 24.6 60 15.3 56 56 SE 8 13 30.01 1016 10 16 0.00 0.00
7:55 pm 19:55 Sunny 75 24 59 15.1 58 58 SSE 8 13 30.01 1016 10 16 0.00 0.00
8:15 pm 20:15 Sunny 74 23.1 59 15.1 61 61 SE 8 13 30.02 1017 10 16 0.00 0.00
8:35 pm 20:35 Clear 72 22 60 15.4 66 66 SE 5 7 30.05 1017 10 16 0.00 0.00
8:55 pm 20:55 Clear 71 21.8 60 15.5 67 67 SE 3 6 30.06 1018 10 16 0.00 0.00
9:15 pm 21:15 Clear 70 21 60 15.6 71 71 SE 5 7 30.07 1018 10 16 0.00 0.00
9:35 pm 21:35 Clear 69 20.8 61 16 74 74 SE 6 9 30.06 1018 10 16 0.00 0.00
9:55 pm 21:55 Clear 67 19.2 61 16 82 82 SSE 6 9 30.08 1019 10 16 0.00 0.00
10:15 pm 22:15 Clear 64 17.9 60 15.8 88 88 SSE 5 7 30.10 1019 10 16 0.00 0.00
10:35 pm 22:35 Clear 65 18.3 61 16.2 88 88 Calm 30.10 1019 10 16 0.00 0.00
10:55 pm 22:55 Clear 64 18 61 16 88 88 Calm 30.10 1019 10 16 0.00 0.00
11:15 pm 23:15 Clear 64 17.7 61 16 90 90 SSE 5 7 30.08 1019 10 16 0.00 0.00
11:35 pm 23:35 Clear 64 17.5 60 15.7 89 89 SSE 7 11 30.08 1019 10 16 0.00 0.00
11:55 pm 23:55 Clear 63 17.4 60 15.5 89 89 SSE 6 9 30.07 1018 10 16 0.00 0.00

Powered by AerisWeather